Погода в Кызылжаре

Погода в Кызылжаре : погода сейчас, прогноз погоды и архив. Всё, что Вы хотите узнать о погоде в Кызылжаре!

Поиск расширенной информации на нашем сайте:

Другие новости

Новости СМИ2

Главная страница сайта

Новости сайта

03.07.2017

Напоминаем, что на нашем специализированном сайте Метеоцентр.Азия вы можете получить высокодетализированные автоматические прогнозы погоды по пунктам России, СНГ и мира в авиационном формате (включающие направление и скорость ветра, видимость, явления погоды, количество и форму облачности, нижнюю и верхнюю границу облачности).

Рекомендуем: Годування собаки

Погода в Кызылжаре - сегодня

Время (UTC), дата Ветер
(°,м/с) 
Видим.   Явления Облачность Т
(°С)
Тd
(°С)
f(%) Тe
(°С)
Pmin
(гПа)
dP
(гПа)
Po
(мм)
O2
(г/м3)
Тmin Tmax R s Состояние
почвы
06 15.08.17 120 (ЮВ) 20000 м    8/0 верхняя 
[Ci fib]
+24.1 +2.2 24 +24  1013.6  -0.3  730  270  +13.8         
09 15.08.17 050 (СВ) 20000 м    8/4 1000 м верхняя 
[Cu med, cong|Ci fib]
+25.7 +2.9 23 +26  1012.8  -0.8  729  268           
12 15.08.17 050 (СВ) 20000 м    8/8 1000 м 
[Cu med, cong]
+25.5 +0.6 20 +26  1012.6  -0.3  729  268           
15 15.08.17 050 (СВ) 20000 м    4/4 2000 м средняя 
[Ac cuf]
+22.1 +3.4 29 +22  1014.3  1.6  730  272    +26.4       
18 15.08.17 080 (В) н/о    ясно 
+17.1 +2.6 38 +18  1015.6  0.7  730  276    +26.4       
21 15.08.17 090 (В) н/о    ясно 
+15.2 +3 44 +16  1015.2  -0.8  730  278           
00 16.08.17 080 (В) 20000 м    ясно 
+13 +4.1 55 +13  1016.4  1.1  730  280           
03 16.08.17 100 (В) 20000 м    ясно 
+16.2 +4.4 45 +16  1017.1  1.6  731  277           
06 16.08.17 080 (В) 20000 м    6/6 1000 м 
[Cu hum]
+20.7 +3.5 32 +21  1016.4  -0.1  731  273  +13         
09 16.08.17 080 (В) 20000 м    3/3 2000 м средняя 
[Ac trans]
+24.2 +1.6 23 +24  1015.2  -0.9  731  270           
12 16.08.17 090 (В) 20000 м    ясно 
+24 +2 24 +24  1015  -0.3  731  270           
15 16.08.17 090 (В) 20000 м    ясно 
+21.9 +3.7 30 +22  1016.3  1.3  731  272    +24.7       
18 16.08.17 070 (В) н/о    ясно 
+16.6 +3.6 42 +17  1017.8  0.9  732  277    +24.7       
21 16.08.17 080 (В) н/о    ясно 
+13.5 +2.8 48 +15  1018.7  0.5  732  281           
00 17.08.17 050 (СВ) 20000 м    ясно 
+10.7 +3.2 60 +12  1020.2  1.3  733  284           
03 17.08.17 030 (СВ) 20000 м    ясно 
+16.9 +4.9 45 +18  1020.3  1.3  751  284           
06 17.08.17 060 (СВ) 20000 м    ясно 
+22 +2.9 28 +22  1019.7  0.3  734  273  +10.7         
09 17.08.17 070 (В) 20000 м    ясно 
+25.2 +3.2 24 +25  1018.4  -1.2  733  270           
12 17.08.17 040 (СВ) 20000 м    ясно 
+26.8 +2.2 20 +27  1017.6  -0.7  733  269           
15 17.08.17 050 (СВ) 20000 м    ясно 
+21.1 +1.6 27 +21  1018.6  0.3  733  274    +27.6       
18 17.08.17 080 (В) н/о    ясно 
+17.2 +9.7 61 +20  1019.6  0.7  733  276    +27.6       
21 17.08.17 тихо ()   н/о    ясно 
+14 +5.1 55 +14  1019.7  -0.5  733  280           
00 18.08.17 080 (В) 20000 м    1/1 2000 м средняя 
[Ac trans]
+11.8 +4.9 63 +13  1020  -0.1  733  282           
03 18.08.17 140 (ЮВ) 20000 м    8/8 2000 м средняя 
[Ac trans]
+17.9 +5.5 44 +19  1019.8  0.9  733  276           
06 18.08.17 340 (С) 20000 м    8/3 1000 м средняя 
[Cu med, cong|Ac und]
+26.3 +4.6 25 +26  1018.1  -0.7  733  269  +11.8         
Время (UTC), дата Ветер
(°,м/с) 
Видим.   Явления Облачность Т
(°С)
Тd
(°С)
f(%) Тe
(°С)
Pmin
(гПа)
dP
(гПа)
Po
(мм)
O2
(г/м3)
Тmin Tmax R s Состояние
почвы

Для получения пояснительной информации подведите курсор к названию столбца.

ПОГОДА в Кызылжаре - архив

Всё, что Вы хотите узнать о погоде в Кызылжаре - удобно и подробно!

Выберите нужную дату (начиная с 1 января 2015* года) и нажмите кнопку "Найти".
Будут отображены архивные сводки погоды по пункту Кызылжар, начиная с указанной даты.


Отображать данные в формате CSV (для использования в таблицах Excel)


Внимание! Наш архив погоды предназначен исключительно для личного некоммерческого использования в познавательных целях. Если Вам необходимы официальные справки о состоянии погоды (для производственных, юридических, коммерческих и т.п. целей), обращайтесь в органы Росгидромета.

*Примечание: данная дата относится к архиву по метеостанциям СССР (Россия, СНГ, Балтия).
Архив по метеостанциям Зарубежной Европы и Азии (кроме Китая) хранится 10 дней, по другим регионам земного шара (Китай, Африка, Америка, Австралия, Океания) - 1 день.

Кызылжар - район местоположения метеостанции


Название, широта, долгота, высота метеостанции:
Кызылжар 48.3°ш. 69.6°д. 361 м над ур. моря [Казахстан]

Дополнительная информация

В oтличие oт бoльшинства пoгoдных сайтoв мы публикуем пoдрoбную метеoинфoрмацию в детальнoм прoфессиoнальнoм фoрмате.

Характеристики температуры и влажнoсти вoздуха измеряются на высoте 2 м в тени вдали oт зданий и деревьев.
Скoрoсть ветра измеряется на высoте 10 м (на урoвне рoста челoвека скoрoсть ветра ниже в 1.5-2 раза). Если метеoстанция нахoдится в гoрoде или в лесу, тo скoрoсть ветра занижена на 2-4 м/с пo сравнению с oткрытым местoм. Скoрoсть ветра над акватoриями крупных рек и oзёр, а также на вершинах хoлмoв на 2-5 м/с выше, чем в oбычных услoвиях.
Атмoсфернoе давление в разных тoчках местнoсти мoжет значительнo oтличаться oт давления на метеoстанции, в зависимoсти oт услoвий рельефа (при пoдъёме на 10 м давление пoнижается примернo на 1 мм рт.ст.).